This is the latest recevied weather packets stored in our database for station/object OM2RC-6. If no packets are shown the sender has not sent any weather packets the latest 10 day(s).
| Time | Temp. | Humidity | Pressure | Rain* | Wind** | Luminosity | Snow |
|---|---|---|---|---|---|---|---|
| 1777678232 | 8.89° C | 100% | 1026.8 hPa | - | - | - | - |
| 1777677931 | 7.78° C | 100% | 1026.8 hPa | - | - | - | - |
| 1777677329 | 7.78° C | 100% | 1026.9 hPa | - | - | - | - |
| 1777677029 | 7.78° C | 100% | 1026.8 hPa | - | - | - | - |
| 1777676728 | 7.78° C | 100% | 1026.9 hPa | - | - | - | - |
| 1777676427 | 8.33° C | 100% | 1026.9 hPa | - | - | - | - |
| 1777675825 | 8.33° C | 100% | 1026.8 hPa | - | - | - | - |
| 1777675525 | 7.78° C | 100% | 1027 hPa | - | - | - | - |
| 1777675223 | 8.33° C | 100% | 1027 hPa | - | - | - | - |
| 1777674923 | 8.33° C | 100% | 1026.9 hPa | - | - | - | - |
| 1777674623 | 8.33° C | 100% | 1026.9 hPa | - | - | - | - |
| 1777673719 | 8.89° C | 100% | 1027 hPa | - | - | - | - |
| 1777672816 | 8.89° C | 100% | 1027 hPa | - | - | - | - |
| 1777672214 | 10° C | 100% | 1027 hPa | - | - | - | - |
| 1777671912 | 10° C | 100% | 1027 hPa | - | - | - | - |
| 1777671611 | 10° C | 100% | 1027 hPa | - | - | - | - |
| 1777671310 | 10° C | 100% | 1026.9 hPa | - | - | - | - |
| 1777671009 | 10° C | 100% | 1026.9 hPa | - | - | - | - |
| 1777670709 | 10° C | 100% | 1026.8 hPa | - | - | - | - |
| 1777670407 | 10° C | 100% | 1026.8 hPa | - | - | - | - |
| 1777670107 | 10° C | 100% | 1026.7 hPa | - | - | - | - |
| 1777669804 | 10° C | 100% | 1026.8 hPa | - | - | - | - |
| 1777669503 | 10° C | 100% | 1026.8 hPa | - | - | - | - |
| 1777669202 | 10° C | 100% | 1026.9 hPa | - | - | - | - |
| 1777668901 | 10° C | 100% | 1026.9 hPa | - | - | - | - |
* Rain since midnight (hover to see other rain measurements)
** Current wind speed in m/s (hover to see current wind gust speed)